Location: Igon
(43.1667°N, 0.2333°W)
Time: 20:38:01
(UTC+00:00)

SMAP - Pass Details

Date: 29 November 2020
Orbit: 681 x 683 km, 98.1° (Epoch: 20 January)

Event Time Altitude Azimuth Distance (km) Brightness Sun altitude
Rises 06:19:34 0° 13° (NNE) 3,057 6.3 -9.3°
Reaches altitude 10° 06:21:49 10° 15° (NNE) 2,136 5.6 -9.0°
Maximum altitude 06:26:30 82° 102° (ESE) 695 3.2 -8.2°
Drops below altitude 10° 06:31:08 10° 192° (SSW) 2,118 5.8 -7.4°
Sets 06:33:22 0° 193° (SSW) 3,029 6.5 -7.0°
